Regional Weather Roundup
Issued by NWS Little Rock, AR

Home | Current Version | Previous Version | Graphics & Text | Print | Product List | Glossary On
Versions: 1 2 3 4 5 6 7 8 9 10 11 12 13 14 15 16 17 18 19 20 21 22 23 24 25 26 27 28 29 30 31 32 33 34 35 36 37 38 39 40 41 42 43 44 45 46 47 48 49 50
763
ASUS44 KLZK 240305
RWRLZK

WEATHER ROUNDUP FOR ARKANSAS
NATIONAL WEATHER SERVICE LITTLE ROCK AR
1000 PM CDT SAT JUL 23 2016

NOTE: "FAIR" INDICATES FEW OR NO CLOUDS BELOW 12,000 FEET WITH NO
SIGNIFICANT WEATHER AND/OR OBSTRUCTIONS TO VISIBILITY.

ARZ001-003-010-029-240400-
NORTHWEST ARKANSAS

CITY           SKY/WX    TMP DP  RH WIND       PRES   REMARKS
FAYETTEVILLE   CLEAR     82  75  79 W6        29.95S HX  89
FORT SMITH     PTCLDY    86  71  60 CALM      29.90F HX  91
HARRISON       CLOUDY    82  74  76 SE9       29.98R HX  88
BENTONVILLE    CLEAR     84  72  65 S6        29.97R HX  89
ROGERS         CLEAR     84  77  79 S3        29.96F HX  94
SILOAM SPGS    CLEAR     84  68  58 S6        29.97S HX  87
HIGHFILL       CLEAR     85  76  74 S5        29.96R HX  94
$$

ARZ004-005-016-240400-
NORTH CENTRAL ARKANSAS

CITY           SKY/WX    TMP DP  RH WIND       PRES   REMARKS
BATESVILLE     CLOUDY    79  72  78 CALM      29.96R
FLIPPIN        CLOUDY    82  70  65 CALM      29.92F HX  86
MTN HOME       MOCLDY    81  72  74 S3        29.95S HX  85
$$

ARZ040-041-240400-
WEST CENTRAL ARKANSAS

CITY           SKY/WX    TMP DP  RH WIND       PRES   REMARKS
MENA           CLOUDY    77  77 100 CALM      29.98F
MOUNT IDA      MOCLDY    80  74  81 CALM      29.95S HX  85
$$

ARZ009-017-025-026-028-240400-
NORTHEAST ARKANSAS

CITY           SKY/WX    TMP DP  RH WIND       PRES   REMARKS
CORNING          N/A     82  77  83 SE3       29.95S HX  91
JONESBORO      CLOUDY    81  72  74 CALM      29.96R HX  85
NEWPORT        CLOUDY    79  74  84 S6        29.96R
WALNUT RIDGE   CLOUDY    81  73  78 S6        29.94R HX  85
BLYTHEVILLE    MOCLDY    82  78  88 CALM      29.97R HX  91
$$

ARZ022-023-033-042-044-240400-
CENTRAL ARKANSAS

CITY           SKY/WX    TMP DP  RH WIND       PRES   REMARKS
LITTLE ROCK    MOCLDY    79  70  74 CALM      29.95R
N LITTLE ROCK    N/A     77  70  79 CALM      29.93R
JACKSONVILLE   CLOUDY    76  75  99 NW1       29.94R
SEARCY         CLOUDY    77  71  82 CALM      29.97R
HOT SPRINGS    CLOUDY    78  73  84 W6        29.95F
RUSSELLVILLE   CLOUDY    81  73  76 NE9       29.94R HX  86
$$

ARZ036-240400-
EAST ARKANSAS

CITY           SKY/WX    TMP DP  RH WIND       PRES   REMARKS
WEST MEMPHIS   CLOUDY    80  74  81 S3        29.96R HX  85
$$

ARZ050-053-066-070-073-240400-
SOUTHWEST ARKANSAS

CITY           SKY/WX    TMP DP  RH WIND       PRES   REMARKS
CAMDEN         CLOUDY    77  68  73 CALM      29.94R
TEXARKANA      MOCLDY    75  74  96 NE8       29.97R
EL DORADO      CLOUDY    76  72  87 S3        29.95F
DE QUEEN       CLOUDY    77  75  93 E3        29.93F
$$

ARZ056-057-069-240400-
SOUTHEAST ARKANSAS

CITY           SKY/WX    TMP DP  RH WIND       PRES   REMARKS
PINE BLUFF     CLOUDY    74  72  93 SE8       29.92F
STUTTGART      CLOUDY    75  70  83 N3        29.94S
MONTICELLO     MOCLDY    77  74  90 CALM      29.96S

$$






USA.gov is the U.S. government's official web portal to all federal, state and local government web resources and services.